When you browse on this site, cookies collect data to enhance your experience and personalize the content and advertising you see.
Visit our Privacy Policy to learn more. By continuing to use the site, you agree to this use of cookies and data.
  • In United Kingdom
  • List of Countries
  • For 7 days
  • Water Temperature
  • Weather Map
  • Weather Widgets
  • user-avatar
    Login

    Hourly Weather Pamporovo

    Today, 17 January, Friday

    Time Temperature Precipitation Wind Pressure Humidity
    00:00 -6°C° 0 mm 2 mps 627 mmHg 77%
    01:00 -6°C° 0 mm 2 mps 627 mmHg 80%
    02:00 -7°C° 0 mm 2 mps 627 mmHg 79%
    03:00 -7°C° 0 mm 2 mps 627 mmHg 80%
    04:00 -7°C° 0 mm 2 mps 627 mmHg 81%
    05:00 -7°C° 0 mm 2 mps 627 mmHg 81%
    06:00 -7°C° 0 mm 2 mps 627 mmHg 81%
    07:00 -7°C° 0 mm 2 mps 627 mmHg 80%
    08:00 -7°C° 0 mm 2 mps 628 mmHg 79%
    09:00 -5°C° 0 mm 2 mps 628 mmHg 70%
    10:00 -3°C° 0 mm 2 mps 629 mmHg 60%
    11:00 -2°C° 0 mm 2 mps 630 mmHg 50%
    12:00 -1°C° 0 mm 2 mps 630 mmHg 49%
    13:00 -1°C° 0 mm 2 mps 630 mmHg 48%
    14:00 +1°C° 0 mm 2 mps 630 mmHg 49%
    15:00 -2°C° 0 mm 2 mps 629 mmHg 58%
    16:00 -1°C° 0 mm 1 mps 628 mmHg 68%
    17:00 -3°C° 0 mm 1 mps 627 mmHg 77%
    18:00 -4°C° 0 mm 1 mps 627 mmHg 77%
    19:00 -4°C° 0 mm 1 mps 627 mmHg 76%
    20:00 -6°C° 0 mm 1 mps 628 mmHg 76%
    21:00 -6°C° 0 mm 1 mps 627 mmHg 74%
    22:00 -6°C° 0 mm 1 mps 627 mmHg 72%
    23:00 -6°C° 0 mm 1 mps 627 mmHg 71%

    Tomorrow, 18 January, Saturday

    Time Temperature Precipitation Wind Pressure Humidity
    00:00 -7°C° 0 mm 1 mps 627 mmHg 70%
    01:00 -7°C° 0 mm 1 mps 627 mmHg 70%
    02:00 -7°C° 0 mm 1 mps 627 mmHg 69%
    03:00 -7°C° 0 mm 1 mps 627 mmHg 67%
    04:00 -7°C° 0 mm 1 mps 626 mmHg 65%
    05:00 -7°C° 0 mm 0 mps 626 mmHg 62%
    06:00 -7°C° 0 mm 0 mps 626 mmHg 61%
    07:00 -7°C° 0 mm 0 mps 626 mmHg 59%
    08:00 -7°C° 0 mm 1 mps 626 mmHg 58%
    09:00 -4°C° 0 mm 1 mps 627 mmHg 53%
    10:00 -2°C° 0 mm 1 mps 628 mmHg 48%
    11:00 0°C° 0 mm 1 mps 629 mmHg 43%
    12:00 0°C° 0 mm 1 mps 628 mmHg 44%
    13:00 +1°C° 0 mm 1 mps 628 mmHg 45%
    14:00 +2°C° 0 mm 1 mps 628 mmHg 46%
    15:00 0°C° 0 mm 1 mps 627 mmHg 56%
    16:00 -2°C° 0 mm 1 mps 626 mmHg 67%
    17:00 -4°C° 0 mm 1 mps 625 mmHg 78%
    18:00 -4°C° 0 mm 1 mps 625 mmHg 80%
    19:00 -6°C° 0 mm 1 mps 624 mmHg 82%
    20:00 -7°C° 0 mm 1 mps 624 mmHg 84%
    21:00 -7°C° 0 mm 0 mps 624 mmHg 83%
    22:00 -7°C° 0 mm 0 mps 624 mmHg 82%
    23:00 -7°C° 0 mm 0 mps 624 mmHg 81%

    Day after tomorrow, 19 January, Sunday

    Time Temperature Precipitation Wind Pressure Humidity
    00:00 -7°C° 0 mm 0 mps 624 mmHg 79%
    01:00 -7°C° 0 mm 0 mps 624 mmHg 77%
    02:00 -7°C° 0 mm 0 mps 624 mmHg 76%
    03:00 -7°C° 0 mm 0 mps 623 mmHg 74%
    04:00 -8°C° 0 mm 0 mps 623 mmHg 73%
    05:00 -8°C° 0 mm 0 mps 623 mmHg 71%
    06:00 -8°C° 0 mm 0 mps 623 mmHg 72%
    07:00 -8°C° 0 mm 0 mps 623 mmHg 73%
    08:00 -8°C° 0 mm 0 mps 623 mmHg 74%
    09:00 -7°C° 0 mm 0 mps 624 mmHg 68%
    10:00 -4°C° 0 mm 1 mps 625 mmHg 62%
    11:00 -3°C° 0 mm 1 mps 626 mmHg 55%
    12:00 -2°C° 0 mm 1 mps 626 mmHg 55%
    13:00 -2°C° 0 mm 1 mps 626 mmHg 54%
    14:00 -1°C° 0 mm 1 mps 626 mmHg 54%
    15:00 -3°C° 0 mm 1 mps 626 mmHg 63%
    16:00 -4°C° 0 mm 1 mps 626 mmHg 73%
    17:00 -6°C° 0 mm 1 mps 625 mmHg 82%
    18:00 -7°C° 0 mm 1 mps 626 mmHg 85%
    19:00 -7°C° 0 mm 1 mps 626 mmHg 87%
    20:00 -8°C° 0 mm 1 mps 626 mmHg 89%
    21:00 -8°C° 0 mm 1 mps 626 mmHg 88%
    22:00 -8°C° 0 mm 1 mps 627 mmHg 87%
    23:00 -8°C° 0 mm 1 mps 627 mmHg 86%

    20 January, Monday

    Time Temperature Precipitation Wind Pressure Humidity
    00:00 -8°C° 0 mm 1 mps 628 mmHg 87%
    01:00 -8°C° 0 mm 1 mps 628 mmHg 87%
    02:00 -8°C° 0 mm 1 mps 628 mmHg 87%
    03:00 -8°C° 0 mm 1 mps 629 mmHg 87%
    04:00 -9°C° 0 mm 1 mps 629 mmHg 86%
    05:00 -10°C° 0 mm 2 mps 629 mmHg 86%
    06:00 -9°C° 0 mm 1 mps 630 mmHg 85%
    07:00 -9°C° 0 mm 1 mps 630 mmHg 85%
    08:00 -9°C° 0 mm 1 mps 630 mmHg 85%
    09:00 -8°C° 0 mm 1 mps 631 mmHg 75%
    10:00 -6°C° 0 mm 1 mps 633 mmHg 64%
    11:00 -3°C° 0 mm 1 mps 634 mmHg 54%
    12:00 -2°C° 0 mm 1 mps 634 mmHg 50%
    13:00 -4°C° 0 mm 2 mps 634 mmHg 47%
    14:00 -3°C° 0 mm 2 mps 635 mmHg 43%
    15:00 -2°C° 0 mm 1 mps 634 mmHg 51%
    16:00 -3°C° 0 mm 1 mps 634 mmHg 58%
    17:00 -6°C° 0 mm 1 mps 634 mmHg 65%
    18:00 -6°C° 0 mm 1 mps 634 mmHg 67%
    19:00 -7°C° 0 mm 1 mps 634 mmHg 70%
    20:00 -8°C° 0 mm 1 mps 634 mmHg 72%
    21:00 -8°C° 0 mm 1 mps 634 mmHg 68%
    22:00 -8°C° 0 mm 1 mps 634 mmHg 64%
    23:00 -8°C° 0 mm 1 mps 634 mmHg 60%

    21 January, Tuesday

    Time Temperature Precipitation Wind Pressure Humidity
    00:00 -8°C° 0 mm 1 mps 634 mmHg 55%
    01:00 -8°C° 0 mm 1 mps 634 mmHg 50%
    02:00 -8°C° 0 mm 1 mps 634 mmHg 45%
    03:00 -8°C° 0 mm 1 mps 634 mmHg 43%
    04:00 -8°C° 0 mm 1 mps 634 mmHg 41%
    05:00 -8°C° 0 mm 1 mps 634 mmHg 39%
    06:00 -8°C° 0 mm 1 mps 634 mmHg 39%
    07:00 -8°C° 0 mm 1 mps 634 mmHg 38%
    08:00 -8°C° 0 mm 1 mps 634 mmHg 37%
    09:00 -6°C° 0 mm 1 mps 635 mmHg 34%
    10:00 -2°C° 0 mm 1 mps 636 mmHg 31%
    11:00 -1°C° 0 mm 0 mps 637 mmHg 28%
    12:00 0°C° 0 mm 1 mps 637 mmHg 30%
    13:00 +1°C° 0 mm 1 mps 636 mmHg 32%
    14:00 +1°C° 0 mm 1 mps 636 mmHg 34%
    15:00 0°C° 0 mm 1 mps 635 mmHg 41%
    16:00 -2°C° 0 mm 1 mps 634 mmHg 49%
    17:00 -3°C° 0 mm 1 mps 633 mmHg 56%
    18:00 -4°C° 0 mm 1 mps 633 mmHg 57%
    19:00 -4°C° 0 mm 1 mps 633 mmHg 57%
    20:00 -6°C° 0 mm 1 mps 632 mmHg 58%
    21:00 -6°C° 0 mm 1 mps 632 mmHg 56%
    22:00 -6°C° 0 mm 1 mps 632 mmHg 55%
    23:00 -6°C° 0 mm 1 mps 632 mmHg 53%

    22 January, Wednesday

    Time Temperature Precipitation Wind Pressure Humidity
    00:00 -6°C° 0 mm 1 mps 632 mmHg 52%
    01:00 -6°C° 0 mm 1 mps 632 mmHg 50%
    02:00 -6°C° 0 mm 1 mps 631 mmHg 49%
    03:00 -6°C° 0 mm 1 mps 631 mmHg 46%
    04:00 -6°C° 0 mm 1 mps 631 mmHg 43%
    05:00 -4°C° 0 mm 1 mps 630 mmHg 41%
    06:00 -4°C° 0 mm 1 mps 630 mmHg 38%
    07:00 -4°C° 0 mm 1 mps 630 mmHg 36%
    08:00 -4°C° 0 mm 1 mps 630 mmHg 33%
    09:00 -3°C° 0 mm 0 mps 631 mmHg 31%
    10:00 -1°C° 0 mm 0 mps 632 mmHg 28%
    11:00 +2°C° 0 mm 0 mps 633 mmHg 25%
    12:00 +3°C° 0 mm 1 mps 632 mmHg 26%
    13:00 +4°C° 0 mm 1 mps 632 mmHg 28%
    14:00 +4°C° 0 mm 1 mps 632 mmHg 29%
    15:00 +3°C° 0 mm 1 mps 631 mmHg 37%
    16:00 0°C° 0 mm 0 mps 630 mmHg 45%
    17:00 -2°C° 0 mm 0 mps 629 mmHg 53%
    18:00 -2°C° 0 mm 0 mps 628 mmHg 50%
    19:00 -2°C° 0 mm 1 mps 628 mmHg 47%
    20:00 -2°C° 0 mm 1 mps 628 mmHg 44%
    21:00 -2°C° 0 mm 1 mps 627 mmHg 42%
    22:00 -2°C° 0 mm 1 mps 627 mmHg 41%
    23:00 -2°C° 0 mm 1 mps 627 mmHg 39%
    Show more